Weather History for Liberia, Costa Rica

Change the Weather History Date:

Saturday, September 14, 2013

  Actual Average Record
Temperature  
Mean Temperature 81 °F -  
Max Temperature 88 °F 85 °F 91 °F (2011)
Min Temperature 74 °F 73 °F 71 °F (2006)
Cooling Degree Days 16    
Growing Degree Days 31 (Base 50)    
Moisture  
Dew Point 76 °F    
Average Humidity 80    
Maximum Humidity 94    
Minimum Humidity 66    
Precipitation  
Precipitation 0.02 in - - ()
Sea Level Pressure  
Sea Level Pressure 29.79 in    
Wind  
Wind Speed 3 mph ()    
Max Wind Speed 9 mph    
Max Gust Speed -    
Visibility 7.5 miles    
Events Fog    
Averages and records for this station are not official NWS values.
T = Trace of Precipitation, MM = Missing Value Source: Averaged Metar Reports

Daily Weather History Graph

Daily Weather History Graph

Search for Another Location

Airport:

Trip Planner

Search our weather history database for the weather conditions in past years. The results will help you decide how hot, cold, wet, or windy it might be!

Date:

Astronomy

Sep. 14, 2013 Rise Set
Actual Time 5:31 AM CST 5:43 PM CST
Civil Twilight 5:10 AM CST 6:04 PM CST
Nautical Twilight 4:46 AM CST 6:28 PM CST
Astronomical Twilight 4:21 AM CST 6:53 PM CST
Moon 1:44 PM CST (9/14) 12:46 AM CST (9/14)
Length of Visible Light 12h 53m
Length of Day
12h 11m
Waxing Gibbous, 73% of the Moon is Illuminated
Sep 14
Waxing Gibbous
Sep 19
Full
Sep 26
Last Quarter
Oct 4
New
Oct 11
First Quarter

Hourly Weather History & Observations

Time (CST) Temp. Heat Index Dew Point Humidity Pressure Visibility Wind Dir Wind Speed Gust Speed Precip Events Conditions
6:00 AM 75 °F - 73 °F 91% 29.78 in 9 mi NNE 3.5 mph - - Fog Patches of Fog
6:00 AM 75.2 °F - 73.4 °F 94% 29.77 in 6.2 mi NNE 3.5 mph - N/A   Scattered Clouds
7:00 AM 77.0 °F - 73.4 °F 89% 29.79 in 6.2 mi Calm Calm - N/A   Mostly Cloudy
8:00 AM 78.8 °F - 75.2 °F 89% 29.81 in 6.2 mi SSE 3.5 mph - N/A   Mostly Cloudy
9:00 AM 84 °F - 78 °F 76% 29.84 in 12 mi SSE 3.5 mph - -   Partly Cloudy
9:00 AM 84.2 °F 94.1 °F 77.0 °F 79% 29.83 in 6.2 mi SSE 3.5 mph - N/A   Mostly Cloudy
10:00 AM 87.8 °F 99.7 °F 77.0 °F 70% 29.82 in 6.2 mi WNW 3.5 mph - N/A   Mostly Cloudy
11:00 AM 87.8 °F 97.6 °F 75.2 °F 66% 29.82 in 6.2 mi NW 3.5 mph - N/A   Mostly Cloudy
12:00 PM 84 °F - 77 °F 75% 29.82 in 12 mi WNW 6.9 mph - -   Overcast
12:00 PM 84.2 °F 94.1 °F 77.0 °F 79% 29.80 in 6.2 mi WNW 6.9 mph - N/A   Mostly Cloudy
1:00 PM 84.2 °F 94.1 °F 77.0 °F 79% 29.77 in 6.2 mi WNW 8.1 mph - N/A   Mostly Cloudy
2:00 PM 84.2 °F 94.1 °F 77.0 °F 79% 29.75 in 6.2 mi West 6.9 mph - N/A   Mostly Cloudy
3:00 PM 86 °F - 77 °F 67% 29.75 in 12 mi WNW 8.1 mph - -   Overcast
3:00 PM 86.0 °F 96.9 °F 77.0 °F 74% 29.74 in 6.2 mi WNW 8.1 mph - N/A   Mostly Cloudy
4:00 PM 84.2 °F 94.1 °F 77.0 °F 79% 29.73 in 6.2 mi West 9.2 mph - N/A   Mostly Cloudy
5:00 PM 82.4 °F 89.5 °F 75.2 °F 79% 29.75 in 6.2 mi West 4.6 mph - N/A   Overcast
6:00 PM 82 °F - 76 °F 78% 29.78 in 12 mi Calm Calm - -   Overcast
6:00 PM 82.4 °F 90.9 °F 77.0 °F 84% 29.77 in 6.2 mi Calm Calm - N/A   Overcast
7:00 PM 80.6 °F 87.1 °F 77.0 °F 89% 29.89 in 6.2 mi Calm Calm - N/A   Overcast
8:00 PM 80.6 °F 87.1 °F 77.0 °F 89% 29.82 in 6.2 mi Calm Calm - N/A   Overcast